Point Salines, Grenada

6:18 PM AST on August 20, 2017 (GMT -0400)
Point Salines International

Weather History for TGPY - July, 2013

Change the Weather History Date:

Saturday, July 13, 2013

  Actual Average Record
Temperature  
Mean Temperature 81 °F -  
Max Temperature 85 °F 84 °F 88 °F (2017)
Min Temperature 77 °F 76 °F 48 °F (1996)
Cooling Degree Days 16    
Growing Degree Days 31 (Base 50)    
Moisture  
Dew Point 76 °F    
Average Humidity 80    
Maximum Humidity 89    
Minimum Humidity 69    
Precipitation  
Precipitation 0.00 in - - ()
Sea Level Pressure  
Sea Level Pressure 29.95 in    
Wind  
Wind Speed 10 mph ()    
Max Wind Speed 29 mph    
Max Gust Speed -    
Visibility 7.7 miles    
Events      
Averages and records for this station are not official NWS values.
T = Trace of Precipitation, MM = Missing Value Source: Averaged Metar Reports

Daily Weather History Graph

Daily Weather History Graph

Search for Another Location

Airport or City:

Trip Planner

Search our weather history database for the weather conditions in past years. The results will help you decide how hot, cold, wet, or windy it might be!

Date:

Astronomy

Jul. 13, 2013 Rise Set
Actual Time 5:49 AM AST 6:36 PM AST
Civil Twilight 5:26 AM AST 6:58 PM AST
Nautical Twilight 4:59 AM AST 7:25 PM AST
Astronomical Twilight 4:32 AM AST 7:53 PM AST
Moon 10:00 AM AST (7/13) 10:20 PM AST (7/13)
Length of Visible Light 13h 32m
Length of Day
12h 46m
Waxing Crescent, 25% of the Moon is Illuminated
Jul 13
Waxing Crescent
Jul 15
First Quarter
Jul 22
Full
Jul 29
Last Quarter
Aug 6
New

Hourly Weather History & Observations

Time (AST) Temp. Heat Index Dew Point Humidity Pressure Visibility Wind Dir Wind Speed Gust Speed Precip Events Conditions
12:00 AM 80.6 °F 86.2 °F 75.2 °F 84% 29.95 in 6.2 mi East 9.2 mph - N/A   Scattered Clouds
1:00 AM 78.8 °F - 75.2 °F 89% 29.95 in 6.2 mi East 5.8 mph - N/A   Scattered Clouds
2:00 AM 79 °F - 75 °F 83% 29.94 in 11 mi East 11.2 mph - -   Widespread Dust
2:00 AM 78.8 °F - 75.2 °F 89% 29.92 in 6.2 mi East 5.8 mph - N/A   Scattered Clouds
4:00 AM 78.8 °F - 75.2 °F 89% 29.92 in 6.2 mi East 8.1 mph - N/A   Scattered Clouds
5:00 AM 79 °F - 75 °F 83% 29.94 in 11 mi East 13.4 mph - -   Widespread Dust
5:00 AM 78.8 °F - 75.2 °F 89% 29.92 in 6.2 mi East 6.9 mph - N/A   Scattered Clouds
6:00 AM 78.8 °F - 75.2 °F 89% 29.95 in 6.2 mi East 5.8 mph - N/A   Scattered Clouds
7:00 AM 80.6 °F 86.2 °F 75.2 °F 84% 29.95 in 6.2 mi East 8.1 mph - N/A   Partly Cloudy
8:00 AM 83 °F - 76 °F 74% 29.97 in 12 mi East 26.8 mph - -   Widespread Dust
8:00 AM 84.2 °F 92.3 °F 75.2 °F 74% 29.98 in 6.2 mi East 13.8 mph - N/A   Partly Cloudy
9:00 AM 84.2 °F 94.1 °F 77.0 °F 79% 29.98 in 6.2 mi SE 13.8 mph - N/A   Scattered Clouds
10:00 AM 86.0 °F 96.9 °F 77.0 °F 74% 29.98 in 6.2 mi ESE 15.0 mph - N/A   Scattered Clouds
11:00 AM 85 °F - 77 °F 71% 29.99 in 12 mi ESE 13.8 mph - -   Widespread Dust
11:00 AM 86.0 °F 96.9 °F 77.0 °F 74% 29.98 in 6.2 mi ESE 13.8 mph - N/A   Scattered Clouds
12:00 PM 86.0 °F 96.9 °F 77.0 °F 74% 29.98 in 6.2 mi SE 15.0 mph - N/A   Scattered Clouds
1:00 PM 86.0 °F 96.9 °F 77.0 °F 74% 29.95 in 6.2 mi SE 15.0 mph - N/A   Scattered Clouds
2:00 PM 85 °F - 76 °F 69% 29.94 in 14 mi SE 29.1 mph - -   Widespread Dust
2:00 PM 86.0 °F 96.9 °F 77.0 °F 74% 29.92 in 6.2 mi SE 15.0 mph - N/A   Partly Cloudy
3:00 PM 84.2 °F 94.1 °F 77.0 °F 79% 29.92 in 6.2 mi SE 15.0 mph - N/A   Partly Cloudy
4:00 PM 84.2 °F 92.3 °F 75.2 °F 74% 29.89 in 6.2 mi SE 10.4 mph - N/A   Partly Cloudy
5:00 PM 85 °F - 76 °F 69% 29.91 in 12 mi ESE 22.4 mph - -   Widespread Dust
5:00 PM 84.2 °F 94.1 °F 77.0 °F 79% 29.89 in 6.2 mi ESE 11.5 mph - N/A   Partly Cloudy
6:00 PM 82.4 °F 89.5 °F 75.2 °F 79% 29.92 in 6.2 mi East 12.7 mph - N/A   Partly Cloudy
7:00 PM 82.4 °F 89.5 °F 75.2 °F 79% 29.92 in 6.2 mi East 8.1 mph - N/A   Partly Cloudy
8:00 PM 80 °F - 76 °F 82% 29.95 in 12 mi East 13.4 mph - -   Widespread Dust
8:00 PM 80.6 °F 86.2 °F 75.2 °F 84% 29.95 in 6.2 mi East 6.9 mph - N/A   Partly Cloudy
9:00 PM 80.6 °F 86.2 °F 75.2 °F 84% 29.95 in 6.2 mi East 9.2 mph - N/A   Partly Cloudy
10:00 PM 78.8 °F - 75.2 °F 89% 29.98 in 6.2 mi East 5.8 mph - N/A   Partly Cloudy
11:00 PM 80 °F - 75 °F 79% 29.99 in 12 mi East 13.4 mph - -   Widespread Dust
11:00 PM 80.6 °F 86.2 °F 75.2 °F 84% 29.98 in 6.2 mi East 6.9 mph - N/A   Partly Cloudy